Location: Earls Croome
(52.0667°N, 2.2000°W)
Time: 05:18:31
(UTC+00:00)

NOSS 3-4 (C) - Pass Details

Date: 17 November 2019
Orbit: 907 x 1306 km, 63.4° (Epoch: 11 December)

Event Time Altitude Azimuth Distance (km) Brightness Sun altitude
Exits shadow 04:41:11 36° 325° (NW) 1,644 4.4 -25.9°
Maximum altitude 04:44:14 72° 40° (NE) 1,175 3.9 -25.4°
Drops below altitude 10° 04:51:43 10° 125° (SE) 3,137 6.9 -24.3°
Sets 04:54:37 0° 127° (SE) 4,149 7.6 -23.8°
